星链-31410 (STARLINK-31410 )

导读 | 星芒AI

STARLINK-31410 是 SpaceX Starlink 项目中的一颗低轨通信卫星,属于该星座的众多卫星之一,旨在为全球用户提供高速互联网服务。该卫星于近期由猎鹰9号火箭发射入轨,运行在约 550 公里的高度,采用先进的通信技术,支持宽带数据传输。Starlink 卫星群致力于改善偏远地区的网络接入,同时为城市用户提供低延迟的互联网体验。该项目持续扩展,推动全球互联网覆盖和数字连接的普及。

基本信息
目录编号:
59179
目录名称:
STARLINK-31410
国际标识:
2024-045B
轨道中心:
EARTH
卫星名称:
星链-31410
卫星全名:
星链-31410 (STARLINK-31410 )
卫星状态:
在轨 (已飞行649 天)
发射日期:
2024-03-10 UTC
国别 :
美国 (US)
星等 :
--
轨道信息
数据来源 国际轨道数据 AOE轨道数据
星历时间 2025-12-18T23:15:12+0800
1天前
查看轨道信息
2025-12-19T15:00:00+0800
16小时前
查看轨道信息
半长轴 6861.196km 6861.183km
偏心率 0.0001337 0.0001511
轨道倾角 42.996° 42.999°
近地点辐角 242.291° 267.008°
升交点赤经 190.426° 186.727°
平近点角 117.780° 105.447°
近地点 482.143km 482.011km
远地点 483.979km 484.085km
周期 94.267分钟 94.267分钟
每日圈数 15.275767 15.275811
详细信息
固有亮度:
5
最大亮度:
0.3
卫星平台:
Starlink v2.0 mini
覆盖范围:
全球
运营商:
太空探索技术公司
运营商所在国:
美国
制造商(研发单位):
太空探索技术公司
制造商所在国:
美国
使用方式:
暂无
卫星简介
星链(Starlink)计划是由太空探索技术公司(SpaceX)提出的一个巨型低轨卫星互联网星座项目,计划在2019年至2024年间在太空搭建由约1.2万颗卫星组成的“星链”网络,其中1584颗将部署在地球上空550千米处的近地轨道,并从2020年开始工作。该卫星仍在工作。
2D轨道图
3D轨道图
轨道高度分析图
轨道倾角分析图
轨道综合分析图
查看轨道综合分析图